contact:dominique.lefevre@mio.osupytheas.fr, maurice.libes@osupytheas.fr, didier.mallarino@osupytheas.fr
Project:EMSO http://www.emso-fr.org/EMSO-France
Depth: 2436.0 m
Title:EMSO Ligure Ouest : Data MII capteur MICROCAT
DateTime_Computer,Latitude,Longitude,Temperature,Conductivity,Pressure,DateTime_Instrument
DateTime_Computer,Latitude,Longitude,degC,S m-1,dbar,DateTime_Instrument
2020-01-29T00:00:55Z,42.805,6.029,13.2990,4.59983,2469.89,2020-1-29T02:01:29Z
2020-01-29T00:03:59Z,42.805,6.029,13.2991,4.59978,2469.876,2020-1-29T02:04:32Z
2020-01-29T00:07:02Z,42.805,6.029,13.2998,4.59986,2469.83,2020-1-29T02:07:35Z
2020-01-29T00:10:05Z,42.805,6.029,13.2983,4.59980,2469.844,2020-1-29T02:10:38Z
2020-01-29T00:13:08Z,42.805,6.029,13.2988,4.59989,2469.876,2020-1-29T02:13:42Z
2020-01-29T00:16:11Z,42.805,6.029,13.2980,4.59994,2469.89,2020-1-29T02:16:45Z
2020-01-29T00:19:14Z,42.805,6.029,13.2982,4.59988,2469.867,2020-1-29T02:19:48Z
2020-01-29T00:22:18Z,42.805,6.029,13.3006,4.59992,2469.853,2020-1-29T02:22:51Z
2020-01-29T00:25:21Z,42.805,6.029,13.2993,4.59980,2469.914,2020-1-29T02:25:55Z
2020-01-29T00:28:24Z,42.805,6.029,13.2992,4.59983,2469.867,2020-1-29T02:28:58Z
2020-01-29T00:31:28Z,42.805,6.029,13.2982,4.59986,2469.844,2020-1-29T02:32:01Z
2020-01-29T00:34:31Z,42.805,6.029,13.2991,4.59991,2469.853,2020-1-29T02:35:05Z
2020-01-29T00:37:34Z,42.805,6.029,13.2996,4.59996,2469.853,2020-1-29T02:38:08Z
2020-01-29T00:40:37Z,42.805,6.029,13.3000,4.59991,2469.876,2020-1-29T02:41:11Z
2020-01-29T00:43:41Z,42.805,6.029,13.2989,4.59981,2469.806,2020-1-29T02:44:14Z
2020-01-29T00:46:44Z,42.805,6.029,13.2985,4.59988,2469.853,2020-1-29T02:47:17Z
2020-01-29T00:49:47Z,42.805,6.029,13.2991,4.59984,2469.83,2020-1-29T02:50:21Z
2020-01-29T00:52:50Z,42.805,6.029,13.2991,4.59981,2469.83,2020-1-29T02:53:24Z
2020-01-29T00:55:54Z,42.805,6.029,13.2983,4.59984,2469.821,2020-1-29T02:56:27Z
2020-01-29T00:58:57Z,42.805,6.029,13.2986,4.59984,2469.821,2020-1-29T02:59:30Z
2020-01-29T01:02:00Z,42.805,6.029,13.2986,4.59988,2469.867,2020-1-29T03:02:34Z
2020-01-29T01:05:03Z,42.805,6.029,13.2997,4.59998,2469.853,2020-1-29T03:05:37Z
2020-01-29T01:08:06Z,42.805,6.029,13.2990,4.59981,2469.844,2020-1-29T03:08:40Z
2020-01-29T01:11:10Z,42.805,6.029,13.2991,4.59985,2469.83,2020-1-29T03:11:43Z
2020-01-29T01:14:13Z,42.805,6.029,13.2982,4.59992,2469.83,2020-1-29T03:14:46Z
2020-01-29T01:17:16Z,42.805,6.029,13.2986,4.59979,2469.867,2020-1-29T03:17:50Z
2020-01-29T01:20:19Z,42.805,6.029,13.2991,4.59981,2469.867,2020-1-29T03:20:53Z
2020-01-29T01:23:23Z,42.805,6.029,13.2979,4.59996,2469.816,2020-1-29T03:23:56Z
2020-01-29T01:26:26Z,42.805,6.029,13.2982,4.59984,2469.844,2020-1-29T03:26:59Z
2020-01-29T01:29:29Z,42.805,6.029,13.2987,4.59999,2469.83,2020-1-29T03:30:02Z
2020-01-29T01:32:32Z,42.805,6.029,13.2988,4.59978,2469.853,2020-1-29T03:33:06Z
2020-01-29T01:35:36Z,42.805,6.029,13.2991,4.59989,2469.867,2020-1-29T03:36:09Z
2020-01-29T01:38:39Z,42.805,6.029,13.2990,4.59978,2469.844,2020-1-29T03:39:12Z
2020-01-29T01:41:42Z,42.805,6.029,13.2994,4.59987,2469.844,2020-1-29T03:42:16Z
2020-01-29T01:44:45Z,42.805,6.029,13.2997,4.60008,2469.816,2020-1-29T03:45:19Z
2020-01-29T01:47:48Z,42.805,6.029,13.2988,4.59998,2469.844,2020-1-29T03:48:22Z
2020-01-29T01:50:52Z,42.805,6.029,13.2991,4.60033,2469.806,2020-1-29T03:51:25Z
2020-01-29T01:53:55Z,42.805,6.029,13.3001,4.59983,2469.83,2020-1-29T03:54:28Z
2020-01-29T01:56:58Z,42.805,6.029,13.2997,4.60026,2469.844,2020-1-29T03:57:31Z
2020-01-29T02:00:01Z,42.805,6.029,13.2990,4.59988,2469.806,2020-1-29T04:00:35Z
2020-01-29T02:03:04Z,42.805,6.029,13.2991,4.60000,2469.83,2020-1-29T04:03:38Z
2020-01-29T02:06:08Z,42.805,6.029,13.2986,4.60001,2469.83,2020-1-29T04:06:41Z
2020-01-29T02:09:11Z,42.805,6.029,13.2974,4.59985,2469.844,2020-1-29T04:09:44Z
2020-01-29T02:12:14Z,42.805,6.029,13.2981,4.60002,2469.83,2020-1-29T04:12:48Z
2020-01-29T02:15:17Z,42.805,6.029,13.2976,4.60008,2469.806,2020-1-29T04:15:51Z
2020-01-29T02:18:20Z,42.805,6.029,13.2996,4.60002,2469.806,2020-1-29T04:18:54Z
2020-01-29T02:21:24Z,42.805,6.029,13.2982,4.59985,2469.867,2020-1-29T04:21:57Z
2020-01-29T02:24:27Z,42.805,6.029,13.2975,4.59981,2469.821,2020-1-29T04:25:01Z
2020-01-29T02:27:30Z,42.805,6.029,13.2993,4.59996,2469.806,2020-1-29T04:28:04Z
2020-01-29T02:30:33Z,42.805,6.029,13.2983,4.59984,2469.867,2020-1-29T04:31:07Z
2020-01-29T02:33:37Z,42.805,6.029,13.2968,4.59986,2469.806,2020-1-29T04:34:10Z
2020-01-29T02:36:40Z,42.805,6.029,13.2968,4.59978,2469.83,2020-1-29T04:37:13Z
2020-01-29T02:39:43Z,42.805,6.029,13.2968,4.59971,2469.83,2020-1-29T04:40:17Z
2020-01-29T02:42:47Z,42.805,6.029,13.2968,4.59984,2469.783,2020-1-29T04:43:20Z
2020-01-29T02:45:50Z,42.805,6.029,13.2969,4.59984,2469.83,2020-1-29T04:46:23Z
2020-01-29T02:48:53Z,42.805,6.029,13.2964,4.59976,2469.844,2020-1-29T04:49:27Z
2020-01-29T02:51:56Z,42.805,6.029,13.2967,4.59967,2469.867,2020-1-29T04:52:30Z
2020-01-29T02:55:00Z,42.805,6.029,13.2965,4.59971,2469.806,2020-1-29T04:55:33Z
2020-01-29T02:58:03Z,42.805,6.029,13.2963,4.59968,2469.844,2020-1-29T04:58:37Z
2020-01-29T03:01:06Z,42.805,6.029,13.2964,4.59967,2469.806,2020-1-29T05:01:40Z
2020-01-29T03:04:10Z,42.805,6.029,13.2968,4.59967,2469.821,2020-1-29T05:04:43Z
2020-01-29T03:07:13Z,42.805,6.029,13.2968,4.59971,2469.821,2020-1-29T05:07:46Z
2020-01-29T03:10:16Z,42.805,6.029,13.2967,4.59972,2469.83,2020-1-29T05:10:49Z
2020-01-29T03:13:19Z,42.805,6.029,13.2967,4.59967,2469.867,2020-1-29T05:13:53Z
2020-01-29T03:16:22Z,42.805,6.029,13.2965,4.59967,2469.797,2020-1-29T05:16:56Z
2020-01-29T03:19:26Z,42.805,6.029,13.2971,4.59979,2469.844,2020-1-29T05:19:59Z
2020-01-29T03:22:29Z,42.805,6.029,13.2968,4.59975,2469.806,2020-1-29T05:23:02Z
2020-01-29T03:25:32Z,42.805,6.029,13.2965,4.59969,2469.783,2020-1-29T05:26:06Z
2020-01-29T03:28:35Z,42.805,6.029,13.2964,4.59972,2469.821,2020-1-29T05:29:09Z
2020-01-29T03:31:39Z,42.805,6.029,13.2965,4.59971,2469.783,2020-1-29T05:32:12Z
2020-01-29T03:34:42Z,42.805,6.029,13.2968,4.59969,2469.797,2020-1-29T05:35:15Z
2020-01-29T03:37:45Z,42.805,6.029,13.2968,4.59969,2469.806,2020-1-29T05:38:19Z
2020-01-29T03:40:48Z,42.805,6.029,13.2964,4.59980,2469.797,2020-1-29T05:41:22Z
2020-01-29T03:43:52Z,42.805,6.029,13.2971,4.59980,2469.821,2020-1-29T05:44:25Z
2020-01-29T03:46:55Z,42.805,6.029,13.2965,4.59975,2469.821,2020-1-29T05:47:28Z
2020-01-29T03:49:58Z,42.805,6.029,13.2968,4.59975,2469.821,2020-1-29T05:50:32Z
2020-01-29T03:53:01Z,42.805,6.029,13.2962,4.59983,2469.797,2020-1-29T05:53:35Z
2020-01-29T03:56:04Z,42.805,6.029,13.2968,4.59974,2469.821,2020-1-29T05:56:38Z
2020-01-29T03:59:08Z,42.805,6.029,13.2972,4.59979,2469.806,2020-1-29T05:59:41Z
2020-01-29T04:02:11Z,42.805,6.029,13.2974,4.59985,2469.821,2020-1-29T06:02:44Z
2020-01-29T04:05:14Z,42.805,6.029,13.2967,4.59974,2469.773,2020-1-29T06:05:48Z
2020-01-29T04:08:17Z,42.805,6.029,13.2965,4.59985,2469.783,2020-1-29T06:08:51Z
2020-01-29T04:11:20Z,42.805,6.029,13.2967,4.59976,2469.783,2020-1-29T06:11:54Z
2020-01-29T04:14:24Z,42.805,6.029,13.2967,4.59973,2469.821,2020-1-29T06:14:57Z
2020-01-29T04:17:27Z,42.805,6.029,13.2971,4.59978,2469.821,2020-1-29T06:18:00Z
2020-01-29T04:20:30Z,42.805,6.029,13.2968,4.59978,2469.83,2020-1-29T06:21:03Z
2020-01-29T04:23:33Z,42.805,6.029,13.2963,4.59980,2469.806,2020-1-29T06:24:07Z
2020-01-29T04:26:36Z,42.805,6.029,13.2975,4.59996,2469.806,2020-1-29T06:27:10Z
2020-01-29T04:29:40Z,42.805,6.029,13.2966,4.59981,2469.783,2020-1-29T06:30:13Z
2020-01-29T04:32:43Z,42.805,6.029,13.2967,4.59974,2469.806,2020-1-29T06:33:16Z
2020-01-29T04:35:46Z,42.805,6.029,13.2967,4.59981,2469.821,2020-1-29T06:36:20Z
2020-01-29T04:38:49Z,42.805,6.029,13.2970,4.59978,2469.783,2020-1-29T06:39:23Z
2020-01-29T04:41:53Z,42.805,6.029,13.2972,4.59995,2469.797,2020-1-29T06:42:26Z
2020-01-29T04:44:56Z,42.805,6.029,13.2965,4.59982,2469.806,2020-1-29T06:45:29Z
2020-01-29T04:47:59Z,42.805,6.029,13.2968,4.59990,2469.83,2020-1-29T06:48:32Z
2020-01-29T04:51:02Z,42.805,6.029,13.2971,4.59986,2469.806,2020-1-29T06:51:36Z
2020-01-29T04:54:05Z,42.805,6.029,13.2961,4.59975,2469.821,2020-1-29T06:54:39Z
2020-01-29T04:57:09Z,42.805,6.029,13.2968,4.59978,2469.821,2020-1-29T06:57:42Z
2020-01-29T05:00:12Z,42.805,6.029,13.2972,4.59983,2469.806,2020-1-29T07:00:45Z
2020-01-29T05:03:15Z,42.805,6.029,13.2970,4.59981,2469.806,2020-1-29T07:03:49Z
2020-01-29T05:06:18Z,42.805,6.029,13.2968,4.59986,2469.83,2020-1-29T07:06:52Z
2020-01-29T05:09:21Z,42.805,6.029,13.2999,4.59983,2469.83,2020-1-29T07:09:55Z
2020-01-29T05:12:25Z,42.805,6.029,13.2968,4.59987,2469.83,2020-1-29T07:12:59Z
2020-01-29T05:15:28Z,42.805,6.029,13.2970,4.59996,2469.844,2020-1-29T07:16:02Z
2020-01-29T05:18:31Z,42.805,6.029,13.2971,4.59992,2469.83,2020-1-29T07:19:05Z
2020-01-29T05:21:35Z,42.805,6.029,13.2996,4.60011,2469.806,2020-1-29T07:22:08Z
2020-01-29T05:24:38Z,42.805,6.029,13.2974,4.60001,2469.844,2020-1-29T07:25:11Z
2020-01-29T05:27:41Z,42.805,6.029,13.2968,4.59984,2469.853,2020-1-29T07:28:15Z
2020-01-29T05:30:44Z,42.805,6.029,13.2978,4.59991,2469.844,2020-1-29T07:31:18Z
2020-01-29T05:33:47Z,42.805,6.029,13.2968,4.59974,2469.806,2020-1-29T07:34:21Z
2020-01-29T05:36:51Z,42.805,6.029,13.2971,4.60003,2469.821,2020-1-29T07:37:24Z
2020-01-29T05:39:54Z,42.805,6.029,13.2983,4.60015,2469.821,2020-1-29T07:40:27Z
2020-01-29T05:42:57Z,42.805,6.029,13.2971,4.59986,2469.806,2020-1-29T07:43:31Z
2020-01-29T05:46:00Z,42.805,6.029,13.2970,4.59991,2469.853,2020-1-29T07:46:34Z
2020-01-29T05:49:04Z,42.805,6.029,13.2986,4.59995,2469.876,2020-1-29T07:49:37Z
2020-01-29T05:52:07Z,42.805,6.029,13.2976,4.60014,2469.844,2020-1-29T07:52:40Z
2020-01-29T05:55:10Z,42.805,6.029,13.2967,4.59993,2469.844,2020-1-29T07:55:44Z
2020-01-29T05:58:13Z,42.805,6.029,13.2980,4.59986,2469.867,2020-1-29T07:58:47Z
2020-01-29T06:01:17Z,42.805,6.029,13.2967,4.59990,2469.853,2020-1-29T08:01:50Z
2020-01-29T06:04:20Z,42.805,6.029,13.2971,4.59992,2469.89,2020-1-29T08:04:53Z
2020-01-29T06:07:23Z,42.805,6.029,13.2974,4.59989,2469.867,2020-1-29T08:07:56Z
2020-01-29T06:10:26Z,42.805,6.029,13.2983,4.59989,2469.853,2020-1-29T08:11:00Z
2020-01-29T06:13:29Z,42.805,6.029,13.2971,4.60003,2469.867,2020-1-29T08:14:03Z
2020-01-29T06:16:33Z,42.805,6.029,13.2980,4.59988,2469.876,2020-1-29T08:17:07Z
2020-01-29T06:19:36Z,42.805,6.029,13.2968,4.59995,2469.89,2020-1-29T08:20:10Z
2020-01-29T06:22:39Z,42.805,6.029,13.2971,4.59991,2469.867,2020-1-29T08:23:13Z
2020-01-29T06:25:43Z,42.805,6.029,13.2965,4.59978,2469.867,2020-1-29T08:26:16Z
2020-01-29T06:28:46Z,42.805,6.029,13.2968,4.59977,2469.9,2020-1-29T08:29:19Z
2020-01-29T06:31:49Z,42.805,6.029,13.2967,4.59972,2469.876,2020-1-29T08:32:23Z
2020-01-29T06:34:52Z,42.805,6.029,13.2970,4.59976,2469.89,2020-1-29T08:35:26Z
2020-01-29T06:37:55Z,42.805,6.029,13.2987,4.59972,2469.89,2020-1-29T08:38:29Z
2020-01-29T06:40:59Z,42.805,6.029,13.2967,4.59988,2469.876,2020-1-29T08:41:32Z
2020-01-29T06:44:02Z,42.805,6.029,13.2970,4.59975,2469.876,2020-1-29T08:44:35Z
2020-01-29T06:47:05Z,42.805,6.029,13.2972,4.59978,2469.9,2020-1-29T08:47:39Z
2020-01-29T06:50:08Z,42.805,6.029,13.2965,4.59984,2469.914,2020-1-29T08:50:42Z
2020-01-29T06:53:11Z,42.805,6.029,13.2971,4.59973,2469.914,2020-1-29T08:53:45Z
2020-01-29T06:56:15Z,42.805,6.029,13.2972,4.59983,2469.923,2020-1-29T08:56:48Z
2020-01-29T06:59:18Z,42.805,6.029,13.2982,4.59989,2469.937,2020-1-29T08:59:52Z
2020-01-29T07:02:21Z,42.805,6.029,13.2976,4.59991,2469.937,2020-1-29T09:02:55Z
2020-01-29T07:05:25Z,42.805,6.029,13.2971,4.59991,2469.9,2020-1-29T09:05:58Z
2020-01-29T07:08:28Z,42.805,6.029,13.2985,4.59999,2469.876,2020-1-29T09:09:01Z
2020-01-29T07:11:31Z,42.805,6.029,13.2983,4.59998,2469.9,2020-1-29T09:12:04Z
2020-01-29T07:14:34Z,42.805,6.029,13.2977,4.59996,2469.937,2020-1-29T09:15:08Z
2020-01-29T07:17:37Z,42.805,6.029,13.2982,4.59990,2469.914,2020-1-29T09:18:11Z
2020-01-29T07:20:41Z,42.805,6.029,13.2978,4.59997,2469.937,2020-1-29T09:21:14Z
2020-01-29T07:23:44Z,42.805,6.029,13.2976,4.60003,2469.923,2020-1-29T09:24:17Z
2020-01-29T07:26:47Z,42.805,6.029,13.2973,4.59991,2469.9,2020-1-29T09:27:21Z
2020-01-29T07:29:50Z,42.805,6.029,13.2990,4.59986,2469.947,2020-1-29T09:30:24Z
2020-01-29T07:32:54Z,42.805,6.029,13.2983,4.59985,2469.96,2020-1-29T09:33:27Z
2020-01-29T07:35:57Z,42.805,6.029,13.2983,4.59985,2469.97,2020-1-29T09:36:30Z
2020-01-29T07:39:00Z,42.805,6.029,13.2968,4.59991,2469.984,2020-1-29T09:39:34Z
2020-01-29T07:42:03Z,42.805,6.029,13.2986,4.59996,2469.947,2020-1-29T09:42:37Z
2020-01-29T07:45:07Z,42.805,6.029,13.2979,4.59992,2469.96,2020-1-29T09:45:40Z
2020-01-29T07:48:10Z,42.805,6.029,13.2990,4.59996,2469.984,2020-1-29T09:48:43Z
2020-01-29T07:51:13Z,42.805,6.029,13.2979,4.59989,2469.97,2020-1-29T09:51:46Z
2020-01-29T07:54:16Z,42.805,6.029,13.2979,4.59997,2469.947,2020-1-29T09:54:50Z
2020-01-29T07:57:19Z,42.805,6.029,13.2979,4.59993,2469.97,2020-1-29T09:57:53Z
2020-01-29T08:00:23Z,42.805,6.029,13.2992,4.59981,2469.97,2020-1-29T10:00:56Z
2020-01-29T08:03:26Z,42.805,6.029,13.3003,4.59995,2470.007,2020-1-29T10:03:59Z
2020-01-29T08:06:29Z,42.805,6.029,13.2976,4.60001,2469.984,2020-1-29T10:07:02Z
2020-01-29T08:09:32Z,42.805,6.029,13.2982,4.60005,2469.984,2020-1-29T10:10:06Z
2020-01-29T08:12:35Z,42.805,6.029,13.2990,4.59998,2469.984,2020-1-29T10:13:09Z
2020-01-29T08:15:39Z,42.805,6.029,13.2981,4.59996,2470.007,2020-1-29T10:16:12Z
2020-01-29T08:18:42Z,42.805,6.029,13.2983,4.60018,2469.993,2020-1-29T10:19:15Z
2020-01-29T08:21:45Z,42.805,6.029,13.2977,4.60015,2470.017,2020-1-29T10:22:19Z
2020-01-29T08:24:48Z,42.805,6.029,13.2992,4.59985,2470.017,2020-1-29T10:25:22Z
2020-01-29T08:27:51Z,42.805,6.029,13.2981,4.59991,2469.993,2020-1-29T10:28:25Z
2020-01-29T08:30:55Z,42.805,6.029,13.2986,4.60004,2470.017,2020-1-29T10:31:28Z
2020-01-29T08:33:58Z,42.805,6.029,13.2976,4.59999,2470.007,2020-1-29T10:34:31Z
2020-01-29T08:37:01Z,42.805,6.029,13.2990,4.59987,2470.017,2020-1-29T10:37:35Z
2020-01-29T08:40:04Z,42.805,6.029,13.2980,4.59996,2470.017,2020-1-29T10:40:38Z
2020-01-29T08:43:08Z,42.805,6.029,13.2983,4.59983,2469.993,2020-1-29T10:43:41Z
2020-01-29T08:46:11Z,42.805,6.029,13.2979,4.60002,2469.993,2020-1-29T10:46:44Z
2020-01-29T08:49:14Z,42.805,6.029,13.2978,4.60003,2470.017,2020-1-29T10:49:48Z
2020-01-29T08:52:17Z,42.805,6.029,13.2990,4.60001,2469.993,2020-1-29T10:52:51Z
2020-01-29T08:55:20Z,42.805,6.029,13.2986,4.59991,2470.017,2020-1-29T10:55:54Z
2020-01-29T08:58:24Z,42.805,6.029,13.2990,4.60004,2470.03,2020-1-29T10:58:57Z
2020-01-29T09:01:27Z,42.805,6.029,13.2990,4.60028,2470.03,2020-1-29T11:02:00Z
2020-01-29T09:04:30Z,42.805,6.029,13.2989,4.59998,2470.04,2020-1-29T11:05:04Z
2020-01-29T09:07:33Z,42.805,6.029,13.2986,4.59994,2470.017,2020-1-29T11:08:07Z
2020-01-29T09:10:37Z,42.805,6.029,13.2986,4.59996,2470.017,2020-1-29T11:11:10Z
2020-01-29T09:13:40Z,42.805,6.029,13.2982,4.60003,2470.053,2020-1-29T11:14:13Z
2020-01-29T09:16:43Z,42.805,6.029,13.2993,4.59992,2470.053,2020-1-29T11:17:17Z
2020-01-29T09:19:46Z,42.805,6.029,13.2968,4.60015,2470.053,2020-1-29T11:20:20Z
2020-01-29T09:22:49Z,42.805,6.029,13.2976,4.60005,2470.053,2020-1-29T11:23:23Z
2020-01-29T09:25:53Z,42.805,6.029,13.2982,4.60010,2470.077,2020-1-29T11:26:26Z
2020-01-29T09:28:56Z,42.805,6.029,13.2982,4.59988,2469.993,2020-1-29T11:29:29Z
2020-01-29T09:31:59Z,42.805,6.029,13.2974,4.59992,2470.053,2020-1-29T11:32:33Z
2020-01-29T09:35:02Z,42.805,6.029,13.2969,4.59976,2470.017,2020-1-29T11:35:36Z
2020-01-29T09:38:05Z,42.805,6.029,13.2968,4.59973,2470.04,2020-1-29T11:38:39Z
2020-01-29T09:41:09Z,42.805,6.029,13.2968,4.59974,2470.03,2020-1-29T11:41:42Z
2020-01-29T09:44:12Z,42.805,6.029,13.2976,4.59975,2470.053,2020-1-29T11:44:45Z
2020-01-29T09:47:15Z,42.805,6.029,13.2972,4.59986,2470.077,2020-1-29T11:47:49Z
2020-01-29T09:50:18Z,42.805,6.029,13.2976,4.59976,2470.049,2020-1-29T11:50:52Z
2020-01-29T09:53:21Z,42.805,6.029,13.2965,4.59972,2470.077,2020-1-29T11:53:55Z
2020-01-29T09:56:25Z,42.805,6.029,13.2962,4.59973,2470.03,2020-1-29T11:56:58Z
2020-01-29T09:59:28Z,42.805,6.029,13.2965,4.59976,2470.063,2020-1-29T12:00:01Z
2020-01-29T10:02:31Z,42.805,6.029,13.2968,4.59968,2470.04,2020-1-29T12:03:05Z
2020-01-29T10:05:34Z,42.805,6.029,13.2963,4.59968,2470.063,2020-1-29T12:06:08Z
2020-01-29T10:08:37Z,42.805,6.029,13.2968,4.59968,2470.04,2020-1-29T12:09:11Z
2020-01-29T10:11:41Z,42.805,6.029,13.2967,4.59973,2470.053,2020-1-29T12:12:14Z
2020-01-29T10:14:44Z,42.805,6.029,13.2968,4.59967,2470.03,2020-1-29T12:15:17Z
2020-01-29T10:17:47Z,42.805,6.029,13.2961,4.59968,2470.053,2020-1-29T12:18:21Z
2020-01-29T10:20:50Z,42.805,6.029,13.2966,4.59966,2470.053,2020-1-29T12:21:24Z
2020-01-29T10:23:54Z,42.805,6.029,13.2962,4.59966,2470.053,2020-1-29T12:24:27Z
2020-01-29T10:26:57Z,42.805,6.029,13.2964,4.59965,2470.03,2020-1-29T12:27:30Z
2020-01-29T10:30:00Z,42.805,6.029,13.2964,4.59966,2470.063,2020-1-29T12:30:33Z
2020-01-29T10:33:03Z,42.805,6.029,13.2963,4.59966,2470.04,2020-1-29T12:33:37Z
2020-01-29T10:36:07Z,42.805,6.029,13.2967,4.59966,2470.053,2020-1-29T12:36:40Z
2020-01-29T10:39:10Z,42.805,6.029,13.2967,4.59966,2470.04,2020-1-29T12:39:43Z
2020-01-29T10:42:13Z,42.805,6.029,13.2967,4.59966,2470.017,2020-1-29T12:42:47Z
2020-01-29T10:45:16Z,42.805,6.029,13.2967,4.59970,2470.03,2020-1-29T12:45:50Z
2020-01-29T10:48:19Z,42.805,6.029,13.2961,4.59967,2470.04,2020-1-29T12:48:53Z
2020-01-29T10:51:23Z,42.805,6.029,13.2959,4.59967,2470.04,2020-1-29T12:51:56Z
2020-01-29T10:54:26Z,42.805,6.029,13.2962,4.59966,2470.053,2020-1-29T12:54:59Z
2020-01-29T10:57:29Z,42.805,6.029,13.2963,4.59967,2470.007,2020-1-29T12:58:03Z
2020-01-29T11:00:32Z,42.805,6.029,13.2964,4.59971,2470.053,2020-1-29T13:01:06Z
2020-01-29T11:03:35Z,42.805,6.029,13.2969,4.59976,2470.026,2020-1-29T13:04:09Z
2020-01-29T11:06:39Z,42.805,6.029,13.2964,4.59971,2470.04,2020-1-29T13:07:12Z
2020-01-29T11:09:42Z,42.805,6.029,13.2969,4.59970,2470.017,2020-1-29T13:10:15Z
2020-01-29T11:12:45Z,42.805,6.029,13.2964,4.59973,2470.04,2020-1-29T13:13:19Z
2020-01-29T11:15:48Z,42.805,6.029,13.2966,4.59969,2470.04,2020-1-29T13:16:22Z
2020-01-29T11:18:51Z,42.805,6.029,13.2963,4.59974,2470.053,2020-1-29T13:19:25Z
2020-01-29T11:21:55Z,42.805,6.029,13.2964,4.59970,2470.017,2020-1-29T13:22:28Z
2020-01-29T11:24:58Z,42.805,6.029,13.2967,4.59981,2470.03,2020-1-29T13:25:31Z
2020-01-29T11:28:01Z,42.805,6.029,13.2963,4.59979,2470.007,2020-1-29T13:28:35Z
2020-01-29T11:31:04Z,42.805,6.029,13.2961,4.59969,2469.993,2020-1-29T13:31:38Z
2020-01-29T11:34:08Z,42.805,6.029,13.2961,4.59966,2470.04,2020-1-29T13:34:41Z
2020-01-29T11:37:11Z,42.805,6.029,13.2967,4.59978,2469.97,2020-1-29T13:37:44Z
2020-01-29T11:40:14Z,42.805,6.029,13.2965,4.59971,2470.007,2020-1-29T13:40:47Z
2020-01-29T11:43:17Z,42.805,6.029,13.2962,4.59967,2469.984,2020-1-29T13:43:51Z
2020-01-29T11:46:20Z,42.805,6.029,13.2964,4.59968,2470.017,2020-1-29T13:46:54Z
2020-01-29T11:49:24Z,42.805,6.029,13.2964,4.59969,2470.03,2020-1-29T13:49:57Z
2020-01-29T11:52:27Z,42.805,6.029,13.2961,4.59976,2470.017,2020-1-29T13:53:00Z
2020-01-29T11:55:30Z,42.805,6.029,13.2964,4.59982,2470.007,2020-1-29T13:56:04Z
2020-01-29T11:58:33Z,42.805,6.029,13.2964,4.59979,2470.03,2020-1-29T13:59:07Z
2020-01-29T12:01:36Z,42.805,6.029,13.2963,4.59969,2469.993,2020-1-29T14:02:10Z
2020-01-29T12:04:39Z,42.805,6.029,13.2964,4.59988,2469.984,2020-1-29T14:05:13Z
2020-01-29T12:07:43Z,42.805,6.029,13.2964,4.59968,2470.03,2020-1-29T14:08:16Z
2020-01-29T12:10:46Z,42.805,6.029,13.2964,4.59979,2469.96,2020-1-29T14:11:19Z
2020-01-29T12:13:49Z,42.805,6.029,13.2966,4.59977,2469.984,2020-1-29T14:14:23Z
2020-01-29T12:16:52Z,42.805,6.029,13.2961,4.59967,2469.97,2020-1-29T14:17:26Z
2020-01-29T12:19:56Z,42.805,6.029,13.2961,4.59967,2470.03,2020-1-29T14:20:29Z
2020-01-29T12:22:59Z,42.805,6.029,13.2959,4.59968,2469.984,2020-1-29T14:23:32Z
2020-01-29T12:26:02Z,42.805,6.029,13.2966,4.59976,2469.96,2020-1-29T14:26:36Z
2020-01-29T12:29:05Z,42.805,6.029,13.2964,4.59967,2470.007,2020-1-29T14:29:39Z
2020-01-29T12:32:08Z,42.805,6.029,13.2962,4.59968,2469.97,2020-1-29T14:32:42Z
2020-01-29T12:35:12Z,42.805,6.029,13.2961,4.59966,2469.984,2020-1-29T14:35:45Z
2020-01-29T12:38:15Z,42.805,6.029,13.2968,4.59981,2469.97,2020-1-29T14:38:49Z
2020-01-29T12:41:18Z,42.805,6.029,13.2968,4.59971,2469.947,2020-1-29T14:41:52Z
2020-01-29T12:44:22Z,42.805,6.029,13.2961,4.59968,2469.984,2020-1-29T14:44:55Z
2020-01-29T12:47:25Z,42.805,6.029,13.2959,4.59971,2469.97,2020-1-29T14:47:58Z
2020-01-29T12:50:28Z,42.805,6.029,13.2967,4.59975,2469.97,2020-1-29T14:51:02Z
2020-01-29T12:53:31Z,42.805,6.029,13.2958,4.59971,2469.97,2020-1-29T14:54:05Z
2020-01-29T12:56:34Z,42.805,6.029,13.2978,4.59994,2469.97,2020-1-29T14:57:08Z
2020-01-29T12:59:38Z,42.805,6.029,13.2976,4.59993,2469.97,2020-1-29T15:00:11Z
2020-01-29T13:02:41Z,42.805,6.029,13.2964,4.59980,2469.984,2020-1-29T15:03:15Z
2020-01-29T13:05:44Z,42.805,6.029,13.2967,4.59984,2469.97,2020-1-29T15:06:18Z
2020-01-29T13:08:47Z,42.805,6.029,13.2967,4.59978,2469.96,2020-1-29T15:09:21Z
2020-01-29T13:11:51Z,42.805,6.029,13.2969,4.59983,2469.984,2020-1-29T15:12:24Z
2020-01-29T13:14:54Z,42.805,6.029,13.2971,4.59991,2469.947,2020-1-29T15:15:27Z
2020-01-29T13:17:57Z,42.805,6.029,13.2965,4.59970,2469.96,2020-1-29T15:18:31Z
2020-01-29T13:21:00Z,42.805,6.029,13.2965,4.59984,2469.984,2020-1-29T15:21:34Z
2020-01-29T13:24:03Z,42.805,6.029,13.2971,4.59991,2469.984,2020-1-29T15:24:37Z
2020-01-29T13:27:07Z,42.805,6.029,13.2979,4.59990,2469.984,2020-1-29T15:27:40Z
2020-01-29T13:30:10Z,42.805,6.029,13.2966,4.59986,2469.937,2020-1-29T15:30:44Z
2020-01-29T13:33:13Z,42.805,6.029,13.2972,4.59977,2469.97,2020-1-29T15:33:47Z
2020-01-29T13:36:17Z,42.805,6.029,13.2973,4.59984,2469.97,2020-1-29T15:36:50Z
2020-01-29T13:39:20Z,42.805,6.029,13.2974,4.59990,2469.937,2020-1-29T15:39:53Z
2020-01-29T13:42:23Z,42.805,6.029,13.2970,4.59998,2469.96,2020-1-29T15:42:57Z
2020-01-29T13:45:26Z,42.805,6.029,13.2976,4.59986,2469.9,2020-1-29T15:46:00Z
2020-01-29T13:48:29Z,42.805,6.029,13.2962,4.59979,2469.923,2020-1-29T15:49:03Z
2020-01-29T13:51:33Z,42.805,6.029,13.2963,4.59986,2469.96,2020-1-29T15:52:06Z
2020-01-29T13:54:36Z,42.805,6.029,13.2964,4.59985,2469.947,2020-1-29T15:55:10Z
2020-01-29T13:57:39Z,42.805,6.029,13.2975,4.59984,2469.96,2020-1-29T15:58:13Z
2020-01-29T14:00:42Z,42.805,6.029,13.2974,4.59988,2469.937,2020-1-29T16:01:16Z
2020-01-29T14:03:46Z,42.805,6.029,13.2972,4.59978,2469.96,2020-1-29T16:04:19Z
2020-01-29T14:06:49Z,42.805,6.029,13.2983,4.59980,2469.96,2020-1-29T16:07:22Z
2020-01-29T14:09:52Z,42.805,6.029,13.2962,4.59973,2469.9,2020-1-29T16:10:26Z
2020-01-29T14:12:55Z,42.805,6.029,13.2971,4.59990,2469.947,2020-1-29T16:13:29Z
2020-01-29T14:15:59Z,42.805,6.029,13.2965,4.59986,2469.923,2020-1-29T16:16:32Z
2020-01-29T14:19:02Z,42.805,6.029,13.2979,4.59980,2469.89,2020-1-29T16:19:35Z
2020-01-29T14:22:05Z,42.805,6.029,13.2967,4.59976,2469.937,2020-1-29T16:22:39Z
2020-01-29T14:25:08Z,42.805,6.029,13.2981,4.59991,2469.947,2020-1-29T16:25:42Z
2020-01-29T14:28:11Z,42.805,6.029,13.2968,4.59985,2469.923,2020-1-29T16:28:45Z
2020-01-29T14:31:15Z,42.805,6.029,13.2974,4.59988,2469.923,2020-1-29T16:31:48Z
2020-01-29T14:34:18Z,42.805,6.029,13.2976,4.59988,2469.923,2020-1-29T16:34:51Z
2020-01-29T14:37:21Z,42.805,6.029,13.2968,4.59994,2469.923,2020-1-29T16:37:55Z
2020-01-29T14:40:24Z,42.805,6.029,13.2974,4.59991,2469.947,2020-1-29T16:40:58Z
2020-01-29T14:43:27Z,42.805,6.029,13.2971,4.59996,2469.947,2020-1-29T16:44:01Z
2020-01-29T14:46:31Z,42.805,6.029,13.2975,4.59980,2469.923,2020-1-29T16:47:04Z
2020-01-29T14:49:34Z,42.805,6.029,13.2975,4.59985,2469.937,2020-1-29T16:50:07Z
2020-01-29T14:52:37Z,42.805,6.029,13.3001,4.59983,2469.914,2020-1-29T16:53:11Z
2020-01-29T14:55:40Z,42.805,6.029,13.2971,4.59986,2469.914,2020-1-29T16:56:14Z
2020-01-29T14:58:43Z,42.805,6.029,13.2977,4.59982,2469.937,2020-1-29T16:59:17Z
2020-01-29T15:01:47Z,42.805,6.029,13.2977,4.59990,2469.89,2020-1-29T17:02:20Z
2020-01-29T15:04:50Z,42.805,6.029,13.2972,4.59978,2469.937,2020-1-29T17:05:24Z
2020-01-29T15:07:53Z,42.805,6.029,13.2979,4.59988,2469.876,2020-1-29T17:08:27Z
2020-01-29T15:10:56Z,42.805,6.029,13.2969,4.59995,2469.914,2020-1-29T17:11:30Z
2020-01-29T15:14:00Z,42.805,6.029,13.2972,4.59980,2469.89,2020-1-29T17:14:33Z